EHI
0 0 0 0 0 0 0 0 0 0 0 0 0 0 0 0 0 0 0 0 0 0 0 0 0 1 2 2 3 7 14 17 12 7 8 15 16 7 1 0 0 0 0
0 0 0 0 0 0 0 0 0 0 0 0 0 0 0 0 0 0 0 0 0 0 0 0 0 0 1 1 1 4 8 13 13 10 9 10 9 6 2 0 0 0 0
0 0 0 0 0 0 0 0 0 0 0 0 0 0 0 0 0 0 0 0 0 0 0 0 0 0 0 0 0 1 2 6 11 13 11 7 5 4 2 0 0 0 0
0 0 0 0 0 0 0 0 0 0 0 0 0 0 0 0 0 0 0 0 0 0 0 0 0 0 0 0 0 0 0 2 6 8 9 8 5 3 1 0 0 0 0
0 0 0 0 0 0 0 0 0 0 0 0 0 0 0 0 0 0 0 0 0 0 0 0 0 0 0 0 0 0 0 0 1 2 4 5 4 1 0 0 0 0 0
0 0 0 0 0 0 0 0 0 0 0 0 0 0 0 0 0 0 0 0 0 0 0 0 0 0 0 0 0 0 0 0 0 0 0 1 1 0 0 0 0 0 0
0 0 0 0 0 0 0 0 0 0 0 0 0 0 0 0 0 0 0 0 0 0 0 0 0 0 0 0 0 0 0 0 0 0 0 0 0 0 0 0 0 0 0
0 0 0 0 0 0 0 0 0 0 0 0 0 0 0 0 0 0 0 0 0 0 0 0 0 0 0 0 0 0 0 0 0 0 0 0 0 0 0 0 0 0 0
0 0 0 0 0 0 0 0 0 0 0 0 0 0 0 0 0 0 0 0 0 0 0 0 0 0 0 0 0 0 0 0 0 0 0 0 0 0 0 0 0 0 0
0 0 0 0 0 0 0 0 0 0 0 0 0 0 0 0 0 0 0 0 0 0 0 0 0 0 0 0 0 0 0 0 0 0 0 0 0 0 0 0 0 0 0
0 0 0 0 0 0 0 0 0 0 0 0 0 0 0 0 0 0 0 0 0 0 0 0 0 0 0 0 0 0 0 0 0 0 0 0 0 0 0 0 0 0 0
0 0 0 0 0 0 0 0 0 0 0 0 0 0 0 0 0 0 0 0 0 0 0 0 0 0 0 0 0 0 0 0 0 0 0 0 0 0 0 0 0 0 0
0 0 0 0 0 0 0 0 0 0 0 0 0 0 0 0 0 0 0 0 0 0 0 0 0 0 0 0 0 0 0 0 0 0 0 0 0 0 0 0 0 0 0
0 0 0 0 0 0 0 0 0 0 0 0 0 0 0 0 0 0 0 0 0 0 0 0 0 0 0 0 0 0 0 0 0 0 0 0 0 0 0 0 0 0 0
0 0 0 0 0 0 0 0 0 0 0 0 0 0 0 0 0 0 0 0 0 0 0 0 0 0 0 0 0 0 0 0 0 0 0 0 0 0 0 0 0 0 0
0 0 0 0 0 0 0 0 0 0 0 0 0 0 0 0 0 0 0 0 0 0 0 0 0 0 0 0 0 0 0 0 0 0 0 0 0 0 0 0 0 0 0
0 0 0 0 0 0 0 0 0 0 0 0 0 0 0 0 0 0 0 0 0 0 0 0 0 0 0 0 0 0 0 0 0 0 0 0 0 0 0 0 0 0 0
0 0 0 0 0 0 0 0 0 0 0 0 0 0 0 0 0 0 0 0 0 0 0 0 0 0 0 0 0 0 0 0 0 0 0 0 0 0 0 0 0 0 0
0 0 0 0 0 0 0 0 0 0 0 0 0 0 0 0 0 0 0 0 0 0 0 0 0 0 0 0 0 0 0 0 0 0 0 0 0 0 0 0 0 0 0
0 0 0 0 0 0 0 0 0 0 0 0 0 0 0 0 0 0 0 0 0 0 0 0 0 0 0 0 0 0 0 0 0 0 0 0 0 0 0 0 0 0 0
0 0 0 0 0 0 0 0 0 0 0 0 0 0 0 0 0 0 0 0 0 0 0 0 0 0 0 0 0 0 0 0 0 0 0 0 0 0 0 0 0 0 0
0 0 0 0 0 0 0 0 0 0 0 0 0 0 0 0 0 0 0 0 0 0 0 0 0 0 0 0 0 0 0 0 0 0 0 0 0 0 0 0 0 0 0
0 0 0 0 0 0 0 0 0 0 0 0 0 0 0 0 0 0 0 0 0 0 0 0 0 0 0 0 0 0 0 0 0 0 0 0 0 0 0 0 0 0 0
0 0 0 0 0 0 0 0 0 0 0 0 0 0 0 0 0 0 0 0 0 0 0 0 0 0 0 0 0 0 0 0 0 0 0 0 0 0 0 0 0 0 0
0 0 0 0 0 0 0 0 0 0 0 0 0 0 0 0 0 0 0 0 0 0 0 0 0 0 0 0 0 0 0 0 0 0 0 0 0 0 0 0 0 0 0
0 0 0 0 0 0 0 0 0 0 0 0 0 0 0 0 0 0 0 0 0 0 0 0 0 0 0 0 0 0 0 0 0 0 0 0 0 0 0 0 0 0 0
Wind_Speed
6 6 6 7 7 7 7 7 7 7 8 8 9 9 9 9 9 8 8 8 8 7 6 6 6 6 5 5 5 3 2 1 2 2 2 5 6 8 7 7 7 5 5
7 6 7 7 7 8 9 8 8 8 8 9 9 9 10 10 9 9 10 11 10 9 8 8 7 6 7 5 5 5 4 3 2 3 3 5 6 8 8 7 6 7 5
9 8 7 8 8 8 8 8 8 8 8 9 9 9 9 10 10 11 10 10 10 10 10 9 9 8 7 6 6 6 4 4 3 3 4 4 5 7 8 8 8 6 6
9 9 8 9 9 8 9 9 9 9 9 9 9 9 9 10 10 11 11 11 11 10 10 10 9 9 9 8 7 7 5 4 4 4 4 4 6 8 8 8 6 5 4
9 10 10 9 9 9 9 9 9 10 11 9 9 10 10 10 11 11 10 12 11 11 11 10 11 11 12 9 7 7 7 5 5 5 5 4 5 8 8 6 7 6 4
9 10 9 9 10 10 9 9 9 9 10 10 10 11 12 12 13 12 9 8 8 10 10 11 12 10 12 14 12 9 8 8 8 6 6 6 7 8 8 8 9 7 4
9 10 10 10 11 10 12 11 11 11 11 10 11 11 12 12 15 15 14 10 9 9 10 9 12 13 13 11 11 10 8 6 5 5 6 6 6 6 8 10 10 8 5
10 11 10 11 12 12 12 12 11 10 10 10 11 12 11 13 15 14 14 11 10 10 10 9 10 11 10 10 11 11 9 8 7 5 4 3 3 2 5 8 10 8 8
11 11 12 12 13 13 13 13 12 10 10 10 11 11 11 11 13 13 13 9 8 10 10 10 10 11 12 12 11 10 10 8 10 8 6 4 3 1 2 7 10 11 8
11 12 12 12 13 14 14 13 12 10 10 11 10 10 10 11 11 12 12 8 8 8 7 8 11 11 12 13 11 10 10 9 9 10 7 6 5 4 5 8 10 12 9
11 12 13 13 13 14 13 11 11 11 10 10 10 10 9 10 10 10 11 8 7 6 5 6 6 10 11 13 11 8 9 8 9 9 8 7 5 5 5 7 8 10 10
12 13 14 14 14 13 13 13 12 10 10 9 8 9 7 6 6 7 9 10 7 5 5 4 4 11 12 12 8 7 9 8 5 7 7 7 6 6 5 7 8 7 6
13 14 14 14 14 13 13 12 10 8 7 7 6 6 6 5 3 4 6 7 7 4 2 0 3 9 10 8 8 9 8 5 5 5 6 7 6 6 6 6 6 6 7
13 14 13 13 14 13 10 9 7 7 7 6 6 5 5 4 3 1 2 4 4 4 2 3 6 8 6 6 7 6 5 4 5 5 6 6 6 6 6 7 7 8 7
13 13 13 12 13 12 11 8 7 6 4 5 6 5 5 4 4 5 4 2 1 3 4 4 4 5 5 5 6 6 6 5 5 4 5 5 6 6 7 8 9 8 7
11 11 10 10 10 10 10 9 6 5 4 4 4 4 4 2 3 4 5 5 5 3 2 4 5 6 7 7 7 7 7 7 6 5 5 5 6 7 8 9 9 9 10
11 11 10 10 10 10 9 8 7 4 5 5 5 5 5 4 2 1 2 3 2 1 2 4 4 4 5 5 5 6 6 6 5 5 5 6 6 8 9 10 10 9 10
12 12 11 9 10 10 9 8 6 6 4 3 5 5 5 4 3 2 1 1 3 4 5 5 4 4 4 4 4 4 4 5 5 5 5 6 7 9 10 11 11 11 11
11 9 9 10 10 10 9 8 6 6 4 2 1 3 4 4 4 3 3 5 5 6 6 6 6 5 4 4 3 3 3 4 5 5 5 7 8 9 10 10 10 14 12
10 13 13 10 10 10 8 6 5 4 3 2 2 2 3 4 4 5 6 6 6 5 5 6 6 5 4 3 3 4 4 4 5 5 5 6 7 9 10 12 11 13 12
9 11 14 11 9 8 8 6 5 4 4 3 1 1 1 4 4 5 6 7 6 6 6 5 5 5 5 4 4 5 6 5 5 5 6 7 8 9 9 10 11 12 11
8 8 9 10 9 8 9 7 5 4 4 4 3 2 4 5 4 3 4 5 6 5 5 5 5 5 5 6 5 5 6 6 6 6 6 7 8 9 9 10 10 10 10
8 9 9 9 8 9 9 6 4 4 4 4 3 3 2 3 4 3 3 3 3 4 4 4 5 5 4 4 4 5 5 5 6 6 7 8 8 9 10 10 12 12 11
8 9 9 10 9 8 8 7 5 4 4 4 4 4 3 3 3 3 3 3 3 4 4 4 4 6 5 4 3 4 4 4 6 6 9 9 10 9 10 10 11 12 10
7 8 9 9 9 9 8 7 6 5 4 4 4 4 4 4 3 4 3 3 3 3 3 3 3 4 5 7 6 4 6 7 6 5 7 8 11 11 11 11 9 9 8
7 8 8 8 9 9 8 7 6 5 4 4 4 3 3 3 4 4 3 2 1 1 1 0 1 3 4 5 6 8 8 8 7 6 6 8 10 10 10 8 10 8 9
Wind_Direction
331 334 330 323 320 313 303 302 308 310 309 303 301 298 293 286 278 266 252 249 250 245 236 231 228 227 236 249 255 249 257 254 206 196 163 151 136 129 130 126 139 125 93
336 331 324 320 315 312 311 313 309 305 304 302 299 297 293 288 282 275 264 254 242 239 235 228 226 219 219 232 242 242 234 221 211 197 157 154 149 140 139 135 122 103 94
327 322 320 316 312 309 308 305 303 299 296 296 293 292 291 291 289 283 276 267 255 243 235 226 220 213 212 214 221 228 232 228 210 202 179 165 159 148 134 118 106 105 101
324 319 313 309 308 306 303 301 299 296 293 289 288 287 285 283 283 282 277 271 264 255 242 233 223 213 208 206 212 215 214 220 212 208 196 173 163 152 140 133 128 123 115
317 312 307 304 303 299 297 296 293 292 292 293 291 286 283 279 272 270 272 272 270 264 254 242 232 219 207 202 205 206 204 207 207 205 201 184 167 160 160 151 140 126 107
310 306 303 300 299 298 296 295 294 294 293 288 284 282 279 277 282 288 287 285 283 277 266 253 244 232 215 200 202 199 199 205 207 202 201 194 185 175 166 153 147 147 142
310 306 306 306 305 304 305 305 301 299 295 289 284 279 275 272 272 268 266 266 264 264 259 252 245 234 213 199 193 187 192 202 206 200 202 195 182 178 170 158 161 160 138
316 313 313 311 307 306 303 300 298 297 292 288 282 279 275 273 268 258 254 257 257 253 251 244 240 245 227 200 192 195 199 198 195 190 188 164 128 124 164 165 153 126 110
319 317 316 313 308 305 302 300 298 295 291 288 285 279 275 273 267 257 247 257 252 252 247 237 231 232 234 206 192 190 193 196 198 192 178 158 140 143 161 149 145 141 137
320 318 314 309 306 304 299 297 296 294 291 290 287 284 281 277 268 255 244 250 247 248 243 235 231 230 224 200 192 188 192 193 182 182 184 185 197 213 200 172 159 153 143
320 315 310 308 305 300 296 296 296 294 293 292 289 286 282 277 270 253 237 236 238 241 237 229 219 208 208 199 192 186 191 185 180 176 180 184 189 200 188 176 173 163 157
318 314 312 310 307 305 302 298 295 294 294 293 292 293 289 282 270 253 230 224 231 236 238 232 201 181 186 189 187 174 171 174 172 174 177 182 186 193 188 176 177 169 155
318 315 313 311 307 303 299 297 298 297 295 297 299 302 304 300 273 237 223 214 212 215 215 212 164 170 176 183 183 164 166 180 175 179 186 187 185 185 171 155 142 125 109
317 315 314 312 309 306 301 297 299 302 303 307 312 314 315 321 334 319 206 186 158 149 131 121 147 163 185 180 164 175 197 202 190 190 189 182 175 174 164 145 139 128 111
318 315 314 311 308 305 302 299 299 301 301 300 312 316 321 338 16 20 16 38 119 140 153 157 165 172 189 192 184 186 198 207 209 199 186 177 173 171 158 149 145 140 136
315 314 312 310 308 304 305 305 289 277 254 251 262 284 304 341 4 29 52 60 66 80 156 187 194 193 196 198 197 195 198 203 202 195 185 176 174 168 157 152 156 155 150
312 310 309 308 306 306 305 304 306 284 238 246 257 264 269 297 308 12 66 71 63 70 230 227 220 216 220 216 206 198 197 196 191 187 181 177 172 164 162 161 162 159 154
312 309 308 306 306 305 302 299 299 303 293 253 222 238 250 251 248 237 187 224 214 209 231 237 236 234 233 234 225 208 197 184 181 183 181 175 170 166 166 167 166 164 160
312 310 311 309 305 302 300 299 301 304 300 282 232 185 210 217 219 223 214 237 236 217 216 225 232 238 236 227 217 212 202 185 177 178 180 174 171 167 168 169 168 166 163
312 311 312 310 307 306 305 311 317 319 321 308 264 234 179 201 216 200 210 229 240 238 230 225 226 230 227 217 207 203 200 185 173 173 176 174 172 170 171 171 171 170 173
314 315 316 313 313 314 317 321 325 329 326 316 294 189 233 253 249 223 215 222 232 235 233 233 228 226 217 204 207 206 203 189 177 174 174 175 174 173 172 173 173 172 171
311 314 317 316 318 320 321 318 326 333 331 332 318 220 224 259 270 253 239 231 229 230 229 225 230 227 218 208 202 200 200 188 176 172 173 175 173 173 171 172 172 171 169
311 317 320 320 320 320 317 327 338 340 341 334 330 326 271 271 279 272 262 255 243 233 227 223 230 233 221 203 192 192 198 186 173 170 172 174 172 173 171 171 171 171 171
316 322 325 326 327 329 329 332 337 350 354 347 349 347 334 312 305 300 293 279 259 247 237 229 234 230 215 190 182 190 180 161 160 170 176 173 172 170 167 168 171 172 169
323 329 329 329 329 330 331 333 338 347 358 358 355 346 340 335 326 314 300 292 284 272 254 230 221 219 207 197 189 164 136 137 150 162 171 171 169 165 161 161 163 162 158
332 335 332 330 328 329 330 333 343 350 360 1 349 343 339 338 342 335 334 342 345 339 338 266 191 177 180 177 153 138 136 140 144 152 162 159 155 153 154 154 158 158 158